Preview of NWS' New Version of Forecast
This preview is not operational and should not be used for support decisions.

Regional Weather Roundup (RWR)

Issued by National Weather Service (NWS)

                            
000
ASPQ40 PGUM 200310
RWRPQ 
WEATHER ROUNDUP FOR THE MARIANAS AND MICRONESIA
NATIONAL WEATHER SERVICE TIYAN GU
100 PM CHST TUE AUG 20 2019

GUZ001>004-200400-
MARIANA ISLANDS-
  
CITY           SKY/WX    TMP DP  RH WIND       PRES   REMARKS
GUAM AIRPORT   MOSUNNY   88  75  66 SE13      29.82F HX  97           
ANDERSEN AFB   PTSUNNY   86  73  66 S14       29.82F HX  93           
ROTA AIRPORT   MOSUNNY   82  77  83 S15       29.79F HX  91           
TINIAN AP      MOSUNNY   88  75  66 SW13      29.78F HX  97           
SAIPAN AP      MOSUNNY   90  75  62 S10       29.80F HX 100           

$$

PMZ161-200400-
REPUBLIC OF PALAU-
  
CITY           SKY/WX    TMP DP  RH WIND       PRES   REMARKS
KOROR AP       PTSUNNY   86  75  70 SW13G20   29.77F HX  95           
KOROR WSO      NOT AVBL                                               

$$

PMZ171>174-200400-
FEDERATED STATES OF MICRONESIA-
  
CITY           SKY/WX    TMP DP  RH WIND       PRES   REMARKS
YAP AIRPORT    LGT RAIN  86  77  74 SW8       29.77F HX  97           
CHUUK AP       CLOUDY    86  81  84 N7        29.77F HX 102           
POHNPEI AP     PTSUNNY   90  81  74 NW8       29.72F HX 108           
POHNPEI WSO    PTSUNNY   91  79  66 N3        29.76F HX 107           
KOSRAE AP      NOT AVBL                                               

$$

PMZ181-200400-
REPUBLIC OF THE MARSHALL ISLANDS-
  
CITY           SKY/WX    TMP DP  RH WIND       PRES   REMARKS
KWAJALEIN AP   SUNNY     88  77  70 SE5       29.73F HX 100           
MAJURO AP      NOT AVBL                                               
MAJURO WSO     PTSUNNY   84  77  79 SW8       29.72F HX  94           

$$